GW3329 Weather Reports


time (UTC)temp
C
wind
direction
speed
KPH
gust
KPH
rain 1hr
cm
rain 24hr
cm
rain mn
cm
humidity
%
barometer
mb
20260510095955 11 164 0.0 0.0 0.00 0.00 0.00 97 1016.1
20260510095450 11 164 0.0 0.0 0.00 0.00 0.00 97 1016.2
20260510094944 11 163 0.0 0.0 0.00 0.00 0.00 97 1016.3
20260510094439 11 163 0.0 0.0 0.00 0.00 0.00 97 1016.5
20260510093935 11 163 0.0 0.0 0.00 0.00 0.00 97 1016.3
20260510093430 11 163 0.0 0.0 0.00 0.00 0.00 97 1016.4
20260510092927 11 164 0.0 0.0 0.00 0.00 0.00 97 1016.0
20260510092425 11 163 0.0 0.0 0.00 0.00 0.00 97 1016.3
20260510091924 11 163 0.0 0.0 0.00 0.00 0.00 97 1016.3
20260510091422 11 164 0.0 0.0 0.00 0.00 0.00 97 1016.2
20260510090918 11 166 0.0 0.0 0.00 0.00 0.00 97 1016.4
20260510090415 11 167 0.0 0.0 0.00 0.00 0.00 97 1016.3
20260510085911 12 164 0.0 0.0 0.00 0.00 0.00 97 1016.2
20260510085406 11 164 0.0 0.0 0.00 0.00 0.00 97 1016.2
20260510084901 11 164 0.0 0.0 0.00 0.00 0.00 97 1016.2
20260510084359 11 164 0.0 0.0 0.00 0.00 0.00 97 1016.3
20260510083856 11 164 0.0 0.0 0.00 0.00 0.00 97 1016.0
20260510083352 11 163 0.0 0.0 0.00 0.00 0.00 97 1016.3
20260510082848 11 163 0.0 0.0 0.00 0.00 0.00 96 1016.4
20260510082345 12 173 0.0 0.0 0.00 0.00 0.00 97 1016.3
20260510081844 12 172 0.0 0.0 0.00 0.00 0.00 97 1016.4
20260510081340 12 173 0.0 0.0 0.00 0.00 0.00 96 1016.5
20260510080837 12 173 0.0 0.0 0.00 0.00 0.00 96 1016.6
20260510080331 12 173 0.0 0.0 0.00 0.00 0.00 96 1016.5
20260510075828 12 173 0.0 0.0 0.00 0.00 0.00 96 1016.6
20260510075326 12 173 0.0 0.0 0.00 0.00 0.00 96 1016.7
20260510074822 12 173 0.0 0.0 0.00 0.00 0.00 96 1016.6
20260510074320 12 173 0.0 0.0 0.00 0.00 0.00 95 1016.7
20260510073815 12 175 0.0 0.0 0.00 0.00 0.00 95 1016.5
20260510073311 12 175 0.0 0.0 0.00 0.00 0.00 95 1016.7
20260510072807 12 175 0.0 0.0 0.00 0.00 0.00 95 1016.7
20260510072259 12 175 0.0 0.0 0.00 0.00 0.00 95 1016.7
20260510071755 12 175 0.0 0.0 0.00 0.00 0.00 95 1016.7
20260510071251 12 177 0.0 0.0 0.00 0.00 0.00 95 1016.8
20260510070750 12 177 0.0 0.0 0.00 0.00 0.00 95 1016.8
20260510070246 12 178 0.0 0.0 0.00 0.00 0.00 95 1016.9
20260510065741 12 180 0.0 0.0 0.00 0.00 0.00 95 1016.7
20260510065238 12 180 0.0 0.0 0.00 0.00 0.00 94 1016.7
20260510064734 12 180 0.0 0.0 0.00 0.00 0.00 94 1016.8
20260510064232 12 180 0.0 0.0 0.00 0.00 0.00 94 1016.7
20260510063728 12 181 0.0 0.0 0.00 0.00 0.00 94 1016.6
20260510063225 12 181 0.0 0.0 0.00 0.00 0.00 94 1016.8
20260510062722 13 182 0.0 0.0 0.00 0.00 0.00 94 1016.9
20260510062218 12 183 0.0 0.0 0.00 0.00 0.00 94 1016.7
20260510061713 12 183 0.0 0.0 0.00 0.00 0.00 94 1016.7
20260510061211 12 183 0.0 0.0 0.00 0.00 0.00 94 1016.6
20260510060707 12 183 0.0 0.0 0.00 0.00 0.00 93 1016.6
20260510060203 13 186 0.0 0.0 0.00 0.00 0.00 93 1016.6
20260510055700 13 184 0.0 0.0 0.00 0.00 0.00 93 1016.9
20260510055158 13 184 0.0 0.0 0.00 0.00 0.00 93 1016.7
20260510054653 13 185 0.0 0.0 0.00 0.00 0.00 93 1016.7
20260510054149 13 186 0.0 0.0 0.00 0.00 0.00 92 1016.7
20260510053648 13 186 0.0 0.0 0.00 0.00 0.00 92 1016.9
20260510053145 13 186 0.0 0.0 0.00 0.00 0.00 92 1016.7
20260510052641 13 187 0.0 0.0 0.00 0.00 0.00 92 1016.9
20260510052137 13 188 0.0 0.0 0.00 0.00 0.00 92 1016.6
20260510051633 13 190 0.0 0.0 0.00 0.00 0.00 92 1016.7
20260510051130 13 174 0.0 0.0 0.00 0.00 0.00 92 1016.8
20260510050627 13 174 0.0 0.0 0.00 0.00 0.00 92 1017.0
20260510050124 13 175 0.0 0.0 0.00 0.00 0.00 91 1016.7
20260510045621 13 172 0.0 0.0 0.00 0.00 0.00 91 1016.7
20260510045117 14 172 0.0 0.0 0.00 0.00 0.00 90 1016.6
20260510044614 13 172 0.0 0.0 0.00 0.00 0.00 91 1016.9
20260510044111 14 172 0.0 0.0 0.00 0.00 0.00 90 1016.6
20260510043607 14 173 0.0 0.0 0.00 0.00 0.00 90 1016.7
20260510043103 14 173 0.0 0.0 0.00 0.00 0.00 90 1016.8
20260510042601 14 173 0.0 0.0 0.00 0.00 0.00 89 1016.7
20260510042057 15 173 0.0 0.0 0.00 0.00 0.00 89 1016.6
20260510041554 15 174 0.0 0.0 0.00 0.00 0.00 89 1016.5
20260510041052 15 181 0.0 0.0 0.00 0.00 0.00 89 1016.4
20260510040548 15 166 0.0 0.0 0.00 0.00 0.00 89 1016.3
20260510040044 15 169 0.0 0.0 0.00 0.00 0.00 89 1016.4
20260510035541 15 161 0.0 0.0 0.00 0.00 0.00 88 1016.5
20260510035040 15 165 0.0 0.0 0.00 0.00 0.00 88 1016.4
20260510034539 15 171 0.0 0.0 0.00 0.00 0.00 88 1016.2
20260510034035 15 169 0.0 0.0 0.00 0.00 0.00 88 1016.3
20260510033531 15 166 0.0 0.0 0.00 0.00 0.00 88 1016.2
20260510033030 15 175 0.0 0.0 0.00 0.00 0.00 88 1016.2
20260510032526 15 172 0.0 0.0 0.00 0.00 0.00 88 1016.1
20260510032021 15 179 0.0 0.0 0.00 0.00 0.00 88 1016.0
20260510031516 15 173 0.0 0.0 0.00 0.00 0.00 88 1016.0
20260510031012 15 181 0.0 0.0 0.00 0.00 0.00 87 1016.1
20260510030508 15 179 0.0 0.0 0.00 0.00 0.00 87 1016.1
20260510030005 15 183 0.0 0.0 0.00 0.00 0.00 86 1016.1
20260510025502 15 174 0.0 0.0 0.00 0.00 0.00 86 1015.8
20260510024959 15 182 0.0 0.0 0.00 0.00 0.00 86 1015.7
20260510024450 15 179 0.0 0.0 0.00 0.00 0.00 85 1015.8
20260510023946 15 325 0.0 1.6 0.00 0.00 0.00 84 1015.9
20260510023443 16 165 0.0 0.0 0.00 0.00 0.00 83 1015.9
20260510022940 16 166 0.0 0.0 0.00 0.00 0.00 83 1015.8
20260510022438 16 163 0.0 0.0 0.00 0.00 0.00 82 1015.7
20260510021938 16 132 0.0 1.6 0.00 0.00 0.00 82 1015.8
20260510021436 16 91 0.0 0.0 0.00 0.00 0.00 81 1015.7
20260510020932 17 94 1.6 1.6 0.00 0.00 0.00 81 1015.7
20260510020427 17 174 0.0 1.6 0.00 0.00 0.00 81 1015.5
20260510015923 17 171 0.0 3.2 0.00 0.00 0.00 80 1015.7
20260510015419 17 162 0.0 1.6 0.00 0.00 0.00 80 1015.6
20260510014914 17 160 0.0 3.2 0.00 0.00 0.00 79 1015.3
20260510014412 18 232 3.2 4.8 0.00 0.00 0.00 79 1015.7
20260510013908 18 67 0.0 4.8 0.00 0.00 0.00 76 1015.7
20260510013403 18 230 0.0 3.2 0.00 0.00 0.00 76 1015.2
20260510012858 18 234 3.2 4.8 0.00 0.00 0.00 76 1015.2
20260510012354 18 254 4.8 4.8 0.00 0.00 0.00 75 1015.6
20260510011849 19 252 3.2 6.4 0.00 0.00 0.00 74 1015.5
20260510011344 19 262 3.2 4.8 0.00 0.00 0.00 74 1015.5
20260510010840 20 321 0.0 3.2 0.00 0.00 0.00 74 1015.5
20260510010338 20 189 1.6 3.2 0.00 0.00 0.00 72 1015.5
20260510005834 20 116 1.6 6.4 0.00 0.00 0.00 71 1015.3
20260510005331 20 162 0.0 4.8 0.00 0.00 0.00 70 1015.5
20260510004829 20 54 0.0 4.8 0.00 0.00 0.00 71 1015.5
20260510004326 21 201 1.6 3.2 0.00 0.00 0.00 69 1015.6
20260510003823 21 89 3.2 3.2 0.00 0.00 0.00 69 1015.5
20260510003321 21 326 3.2 3.2 0.00 0.00 0.00 67 1015.6
20260510002819 21 17 0.0 4.8 0.00 0.00 0.00 68 1015.6
20260510002317 21 176 0.0 4.8 0.00 0.00 0.00 67 1015.5
20260510001813 21 318 3.2 4.8 0.00 0.00 0.00 67 1015.6
20260510001311 21 269 4.8 9.7 0.00 0.00 0.00 67 1015.5
20260510000806 21 79 1.6 6.4 0.00 0.00 0.00 67 1015.7
20260510000305 22 187 0.0 4.8 0.00 0.00 0.00 65 1015.3
20260509235802 22 179 0.0 1.6 0.00 0.00 0.00 64 1015.7
20260509235258 22 33 1.6 4.8 0.00 0.00 0.00 64 1015.5
20260509234754 23 84 0.0 4.8 0.00 0.00 0.00 63 1015.3
20260509234251 22 96 1.6 3.2 0.00 0.00 0.00 63 1015.6
20260509233749 23 140 1.6 9.7 0.00 0.00 0.00 63 1015.3
20260509233246 23 333 1.6 3.2 0.00 0.00 0.00 62 1015.5
20260509232742 23 270 3.2 4.8 0.00 0.00 0.00 62 1015.5
20260509232240 23 12 1.6 3.2 0.00 0.00 0.00 63 1015.7
20260509231736 23 249 3.2 9.7 0.00 0.00 0.00 63 1015.8
20260509231233 23 329 3.2 6.4 0.00 0.00 0.00 61 1015.7
20260509230730 23 265 3.2 3.2 0.00 0.00 0.00 60 1015.6
20260509230227 23 185 1.6 4.8 0.00 0.00 0.00 61 1015.8
20260509225722 23 218 1.6 3.2 0.00 0.00 0.00 61 1015.9
20260509225218 23 211 0.0 6.4 0.00 0.00 0.00 61 1015.6
20260509224714 23 239 3.2 6.4 0.00 0.00 0.00 62 1015.8
20260509224211 23 236 0.0 3.2 0.00 0.00 0.00 62 1015.9
20260509223708 23 61 0.0 3.2 0.00 0.00 0.00 64 1015.9
20260509223205 23 253 0.0 4.8 0.00 0.00 0.00 62 1016.0
20260509222702 23 72 1.6 9.7 0.00 0.00 0.00 62 1016.1
20260509222158 23 119 0.0 4.8 0.00 0.00 0.00 63 1015.8
20260509221654 23 187 1.6 4.8 0.00 0.00 0.00 63 1016.0
20260509221149 23 274 1.6 9.7 0.00 0.00 0.00 62 1016.2
20260509220646 23 188 0.0 12.9 0.00 0.00 0.00 62 1016.2
20260509220142 24 280 8.0 11.3 0.00 0.00 0.00 61 1016.3
20260509215638 23 183 3.2 11.3 0.00 0.00 0.00 62 1016.3
20260509215135 23 217 3.2 4.8 0.00 0.00 0.00 62 1016.3
20260509214632 23 157 1.6 4.8 0.00 0.00 0.00 62 1016.2
20260509214129 24 266 1.6 4.8 0.00 0.00 0.00 61 1016.2
20260509213626 24 227 3.2 6.4 0.00 0.00 0.00 62 1016.4
20260509213121 23 251 6.4 9.7 0.00 0.00 0.00 63 1016.5
20260509212619 23 250 1.6 6.4 0.00 0.00 0.00 64 1016.7
20260509212116 23 183 1.6 11.3 0.00 0.00 0.00 63 1016.3
20260509211612 23 229 3.2 3.2 0.00 0.00 0.00 63 1016.6
20260509211109 23 237 6.4 11.3 0.00 0.00 0.00 64 1016.5
20260509210605 23 35 3.2 6.4 0.00 0.00 0.00 64 1016.6
20260509205556 23 169 3.2 6.4 0.00 0.00 0.00 65 1016.9
20260509205051 23 284 6.4 11.3 0.00 0.00 0.00 65 1016.9
20260509204548 23 25 1.6 6.4 0.00 0.00 0.00 65 1016.8
20260509204045 23 29 3.2 4.8 0.00 0.00 0.00 65 1016.6
20260509203540 23 50 3.2 12.9 0.00 0.00 0.00 66 1016.7
20260509203038 23 170 3.2 4.8 0.00 0.00 0.00 65 1016.9
20260509202533 23 326 3.2 3.2 0.00 0.00 0.00 66 1017.0
20260509202029 23 243 8.0 12.9 0.00 0.00 0.00 65 1017.0
20260509201524 23 146 3.2 11.3 0.00 0.00 0.00 65 1016.9
20260509201021 23 184 3.2 6.4 0.00 0.00 0.00 65 1017.1
20260509200515 22 208 1.6 6.4 0.00 0.00 0.00 66 1017.0
20260509200012 22 27 0.0 4.8 0.00 0.00 0.00 67 1016.7
20260509195508 23 235 3.2 4.8 0.00 0.00 0.00 66 1016.9
20260509195002 22 49 0.0 4.8 0.00 0.00 0.00 68 1017.2
20260509194457 22 30 3.2 9.7 0.00 0.00 0.00 67 1017.2
20260509193954 22 169 3.2 9.7 0.00 0.00 0.00 68 1017.2
20260509193449 22 209 4.8 6.4 0.00 0.00 0.00 67 1017.2
20260509192945 22 203 4.8 4.8 0.00 0.00 0.00 67 1017.0
20260509192442 23 189 3.2 6.4 0.00 0.00 0.00 66 1017.2
20260509191937 22 204 3.2 12.9 0.00 0.00 0.00 68 1017.2
20260509191432 22 213 3.2 9.7 0.00 0.00 0.00 67 1017.6
20260509190929 22 236 1.6 11.3 0.00 0.00 0.00 67 1017.2
20260509190426 22 344 1.6 6.4 0.00 0.00 0.00 69 1017.3
20260509185924 21 263 4.8 11.3 0.00 0.00 0.00 69 1017.3
20260509185421 22 305 6.4 9.7 0.00 0.00 0.00 68 1017.2
20260509184917 21 193 4.8 6.4 0.00 0.00 0.00 69 1017.4
20260509184415 22 225 4.8 9.7 0.00 0.00 0.00 68 1017.3
20260509183911 21 42 0.0 3.2 0.00 0.00 0.00 71 1017.5
20260509183406 21 302 3.2 4.8 0.00 0.00 0.00 71 1017.5
20260509182902 21 284 4.8 4.8 0.00 0.00 0.00 72 1017.6
20260509182359 21 143 1.6 6.4 0.00 0.00 0.00 72 1017.6
20260509181857 20 251 3.2 6.4 0.00 0.00 0.00 74 1017.6
20260509181354 20 162 1.6 3.2 0.00 0.00 0.00 74 1017.8
20260509180851 20 355 1.6 4.8 0.00 0.00 0.00 75 1017.6
20260509180346 20 92 0.0 6.4 0.00 0.00 0.00 77 1017.8
20260509175844 19 220 4.8 4.8 0.00 0.00 0.00 77 1017.8
20260509175340 19 262 3.2 6.4 0.00 0.00 0.00 79 1017.8
20260509174836 18 13 1.6 4.8 0.00 0.00 0.00 81 1017.6
20260509174332 18 158 0.0 6.4 0.00 0.00 0.00 81 1017.7
20260509173828 18 358 1.6 3.2 0.00 0.00 0.00 79 1018.0
20260509173323 18 210 1.6 9.7 0.00 0.00 0.00 81 1017.8
20260509172820 18 296 4.8 4.8 0.00 0.00 0.00 81 1017.8
20260509172317 18 238 3.2 6.4 0.00 0.00 0.00 82 1018.1
20260509171813 18 257 3.2 6.4 0.00 0.00 0.00 81 1017.6
20260509171308 18 191 1.6 4.8 0.00 0.00 0.00 81 1017.8
20260509170805 17 172 0.0 4.8 0.00 0.00 0.00 84 1017.5
20260509170301 17 257 1.6 3.2 0.00 0.00 0.00 84 1017.6
20260509165800 17 281 1.6 3.2 0.00 0.00 0.00 84 1017.8
20260509165255 17 347 3.2 3.2 0.00 0.00 0.00 85 1017.7
20260509164751 16 78 1.6 3.2 0.00 0.00 0.00 86 1017.7
20260509164248 16 173 3.2 4.8 0.00 0.00 0.00 86 1017.8
20260509163745 16 183 4.8 6.4 0.00 0.00 0.00 88 1017.4
20260509163241 16 250 1.6 4.8 0.00 0.00 0.00 88 1017.8
20260509162739 16 327 4.8 6.4 0.00 0.00 0.00 88 1017.8
20260509162234 16 157 0.0 3.2 0.00 0.00 0.00 88 1017.8
20260509161730 16 141 0.0 3.2 0.00 0.00 0.00 89 1018.0
20260509161226 15 239 1.6 3.2 0.00 0.00 0.00 90 1017.7
20260509160721 15 336 0.0 0.0 0.00 0.00 0.00 92 1017.6
20260509160218 15 187 1.6 3.2 0.00 0.00 0.00 93 1017.8
20260509155713 14 176 1.6 4.8 0.00 0.00 0.00 93 1017.8
20260509155210 14 212 3.2 4.8 0.00 0.00 0.00 93 1017.8
20260509154706 14 228 1.6 4.8 0.00 0.00 0.00 93 1017.9
20260509154203 14 134 0.0 3.2 0.00 0.00 0.00 94 1017.9
20260509153700 14 184 0.0 0.0 0.00 0.00 0.00 93 1017.8
20260509153156 14 152 0.0 1.6 0.00 0.00 0.00 94 1017.9
20260509152652 13 161 0.0 0.0 0.00 0.00 0.00 95 1017.7
20260509152149 13 242 3.2 3.2 0.00 0.00 0.00 95 1017.9
20260509151646 13 187 0.0 1.6 0.00 0.00 0.00 96 1017.7
20260509151143 13 309 0.0 1.6 0.00 0.00 0.00 96 1017.5
20260509150641 13 156 0.0 0.0 0.00 0.00 0.00 97 1017.8
20260509150139 13 126 0.0 0.0 0.00 0.00 0.00 97 1017.4
20260509145635 13 124 0.0 0.0 0.00 0.00 0.00 97 1017.8
20260509145130 13 136 0.0 0.0 0.00 0.00 0.00 98 1017.7
20260509144627 12 135 0.0 0.0 0.00 0.00 0.00 98 1017.8
20260509144124 12 142 0.0 0.0 0.00 0.00 0.00 98 1017.6
20260509143621 12 145 0.0 0.0 0.00 0.00 0.00 98 1017.7
20260509143119 12 147 0.0 0.0 0.00 0.00 0.00 98 1017.8
20260509142614 12 170 0.0 0.0 0.00 0.00 0.00 98 1017.7
20260509142111 12 133 0.0 0.0 0.00 0.00 0.00 98 1017.8
20260509141607 12 142 0.0 0.0 0.00 0.00 0.00 98 1017.8
20260509141103 12 78 0.0 0.0 0.00 0.00 0.00 98 1017.8
20260509140600 12 132 0.0 0.0 0.00 0.00 0.00 98 1017.6
20260509140058 12 126 0.0 0.0 0.00 0.00 0.00 98 1017.7
20260509135555 12 149 0.0 0.0 0.00 0.00 0.00 98 1017.7
20260509135053 12 323 0.0 0.0 0.00 0.00 0.00 98 1017.5
20260509134549 12 165 0.0 0.0 0.00 0.00 0.00 98 1017.6
20260509134047 12 345 0.0 0.0 0.00 0.00 0.00 98 1017.4
20260509133544 12 133 0.0 1.6 0.00 0.00 0.00 98 1017.3
20260509133042 12 149 0.0 0.0 0.00 0.00 0.00 98 1017.3
20260509132540 12 87 0.0 0.0 0.00 0.00 0.00 98 1017.1
20260509132037 12 163 0.0 0.0 0.00 0.00 0.00 98 1017.4
20260509131528 12 161 0.0 0.0 0.00 0.00 0.00 98 1017.4
20260509131025 11 156 0.0 0.0 0.00 0.00 0.00 98 1017.3
20260509130520 11 162 0.0 0.0 0.00 0.00 0.00 98 1017.4
20260509130018 11 186 0.0 0.0 0.00 0.00 0.00 97 1017.2
20260509125514 11 162 0.0 0.0 0.00 0.00 0.00 98 1017.2
20260509125010 11 165 0.0 0.0 0.00 0.00 0.00 98 1017.1
20260509124507 11 168 0.0 0.0 0.00 0.00 0.00 98 1017.1
20260509124004 11 158 0.0 0.0 0.00 0.00 0.00 98 1017.0
20260509123502 11 161 0.0 0.0 0.00 0.00 0.00 98 1016.9
20260509122957 11 146 0.0 0.0 0.00 0.00 0.00 98 1016.9
20260509122455 11 166 0.0 0.0 0.00 0.00 0.00 98 1017.1
20260509121951 11 155 0.0 0.0 0.00 0.00 0.00 98 1017.0
20260509121448 11 164 0.0 0.0 0.00 0.00 0.00 98 1016.9
20260509120946 11 171 0.0 0.0 0.00 0.00 0.00 98 1016.9
20260509120444 11 34 0.0 0.0 0.00 0.00 0.00 98 1016.9
20260509115942 11 145 0.0 0.0 0.00 0.00 0.00 98 1016.9
20260509115439 11 171 0.0 0.0 0.00 0.00 0.00 98 1016.8
20260509114936 11 145 0.0 0.0 0.00 0.00 0.00 98 1017.1
20260509114435 11 161 0.0 0.0 0.00 0.00 0.00 98 1017.0
20260509113934 11 160 0.0 0.0 0.00 0.00 0.00 98 1016.9
20260509113431 11 157 0.0 0.0 0.00 0.00 0.00 98 1017.1
20260509112927 11 157 0.0 0.0 0.00 0.00 0.00 98 1016.9
20260509112425 11 164 0.0 0.0 0.00 0.00 0.00 98 1017.1
20260509111921 11 146 0.0 0.0 0.00 0.00 0.00 98 1017.2
20260509111419 11 160 0.0 0.0 0.00 0.00 0.00 98 1017.0
20260509110916 11 160 0.0 0.0 0.00 0.00 0.00 98 1017.2
20260509110412 10 160 0.0 0.0 0.00 0.00 0.00 98 1017.2
20260509105910 10 160 0.0 0.0 0.00 0.00 0.00 98 1017.1
20260509105408 10 162 0.0 0.0 0.00 0.00 0.00 98 1017.5
20260509104905 10 144 0.0 0.0 0.00 0.00 0.00 98 1017.0
20260509104402 10 144 0.0 0.0 0.00 0.00 0.00 98 1017.3
20260509103859 10 177 0.0 0.0 0.00 0.00 0.00 98 1017.3
20260509103356 10 184 0.0 1.6 0.00 0.00 0.00 98 1017.3
20260509102855 10 171 0.0 0.0 0.00 0.00 0.00 98 1017.2
20260509102352 10 163 0.0 0.0 0.00 0.00 0.00 98 1017.2
20260509101847 10 163 0.0 0.0 0.00 0.00 0.00 98 1017.2
20260509101344 10 170 0.0 0.0 0.00 0.00 0.00 98 1017.2
20260509100842 10 173 0.0 0.0 0.00 0.00 0.00 98 1017.1
20260509100339 11 173 0.0 0.0 0.00 0.00 0.00 98 1017.3